Regional Weather Roundup
Issued by NWS

Home | Current Version | Previous Version | Text Only | Print | Product List | Glossary On
Versions: 1 2 3 4 5 6 7 8 9 10 11 12 13 14 15 16 17 18 19 20 21 22 23 24 25 26 27 28 29 30 31 32 33 34 35 36 37 38 39 40 41 42 43 44 45 46 47 48 49 50
000
ASUS43 KTOP 241908
RWRKS

WEATHER ROUNDUP FOR KANSAS
NATIONAL WEATHER SERVICE GOODLAND KS
200 PM CDT FRI APR 24 2015

NOTE:  "FAIR" INDICATES FEW OR NO CLOUDS BELOW 12,000 FEET WITH NO
SIGNIFICANT WEATHER AND/OR OBSTRUCTIONS TO VISIBILITY.

KSZ001>006-013>018-027>032-041>047-242000-
NORTHWEST KANSAS

CITY           SKY/WX    TMP DP  RH WIND       PRES   REMARKS
GOODLAND       MOSUNNY   69  50  50 VRB5      29.59F
HAYS           CLOUDY    72  55  56 S15       29.56F
HILL CITY      CLOUDY    68  56  65 E8        29.58F
RUSSELL        CLOUDY    70  59  68 S14G22    29.56F
$$

KSZ061>065-074>080-084>089-242000-
SOUTHWEST KANSAS

CITY           SKY/WX    TMP DP  RH WIND       PRES   REMARKS
DODGE CITY     SUNNY     80  45  28 SW21G31   29.55F
ELKHART          N/A     72  41  32 W7          N/A
GARDEN CITY    SUNNY     74  50  42 SW15      29.55F
GREAT BEND     PTSUNNY   72  61  68 S17       29.56F
LIBERAL        SUNNY     81  43  26 SW22G28   29.58F
$$

KSZ066>073-081>083-090>101-242000-
SOUTHEAST KANSAS

CITY           SKY/WX    TMP DP  RH WIND       PRES   REMARKS
CHANUTE        CLOUDY    67  58  72 S18       29.71F
COFFEYVILLE    CLOUDY    71  60  68 S15       29.71F
HUTCHINSON     CLOUDY    69  61  75 S12       29.60F
MEDICINE LODGE   N/A     76  57  51 S15G29    29.57F
NEWTON         CLOUDY    66  57  72 S10       29.64F
PARSONS        CLOUDY    70  60  70 S12G23    29.72F
WICHITA INTL   CLOUDY    71  61  70 S23G31    29.60F
WICHITA JABRA  CLOUDY    70  60  70 S18G31    29.60F
WICHITA MCCONL CLOUDY    71  61  72 S25       29.61F
WINFIELD       CLOUDY    72  62  71 S20G25    29.65F
$$

KSZ007>012-019>026-033>040-048>060-102>105-242000-
NORTHEAST KANSAS

CITY           SKY/WX    TMP DP  RH WIND       PRES   REMARKS
CONCORDIA      CLOUDY    62  56  80 SE14      29.62F
EMPORIA        CLOUDY    60  54  80 SE13G18   29.67F
LAWRENCE       CLOUDY    58  51  78 SE12      29.73F
MANHATTAN      CLOUDY    62  56  80 S10       29.65F
MARYSVILLE     CLOUDY    61  54  77 SE9       29.65F
OLATHE IND     CLOUDY    57  51  80 S13       29.73F
OLATHE EXE     CLOUDY    56  52  86 S13       29.73F
SALINA         CLOUDY    63  59  87 SE12      29.62F FOG
TOPEKA BILLARD CLOUDY    60  53  77 SE13      29.70F
TOPEKA FORBES  CLOUDY    60  53  77 SE10      29.69F
$$



USA.gov is the U.S. government's official web portal to all federal, state and local government web resources and services.